Date String (YYYY-MM-DD hh:mm:ss) UTC,Instrument flags,absolute air pressure of the measurement (hPa),sample flow rate (lpm),inlet stack bypass flow (lpm),air temperature of the measurement (°C),ambient temperature measured by the external sensor (°C),aerosol sample conditioner tube jacket temperature (°C),OPC LED temperature (°C),internal box temperature (°C),relative humidity of the measurement (%),span deviation,mass concentration of particles derived from Lorenz-Mie calculation of OPC scattering (μg/m³),mass concentration of particles derived from Lorenz-Mie calculation of OPC scattering (μg/m³),mass concentration of particles derived from Lorenz-Mie calculation of OPC scattering (μg/m³)
DateTimeUTC,F1_M11,P_M11,Q1_M11,Q2_M11,T1_M11,T2_M11,T3_M11,T4_M11,T5_M11,U1_M11,ZSPAN_M11,X2_M11,X0_M11,X1_M11
2024-02-19 07:00:00,SystemResetWarning,0822.8,4.99,000.00,018.5,018.0,000.0,026.9,020.2,12.6,0000.0,0000.52,0002.63,0000.32
2024-02-19 07:01:00,SystemResetWarning,0823.1,4.99,000.00,018.5,018.0,000.0,026.9,020.2,12.4,0000.0,0000.52,0002.32,0000.31
2024-02-19 07:02:00,SystemResetWarning,0822.8,5.00,000.00,018.5,018.0,000.0,026.9,020.2,12.3,0000.0,0000.52,0002.41,0000.31
2024-02-19 07:03:00,SystemResetWarning,0822.7,5.00,000.00,018.5,018.0,000.0,026.9,020.2,12.4,0000.0,0000.50,0002.74,0000.30
2024-02-19 07:04:00,SystemResetWarning,0822.7,5.00,000.00,018.5,018.0,000.0,026.9,020.2,12.2,0000.0,0000.46,0002.91,0000.29
2024-02-19 07:05:00,SystemResetWarning,0822.8,5.00,000.00,018.5,018.0,000.0,026.9,020.3,12.1,0000.0,0000.43,0003.06,0000.28
2024-02-19 07:06:00,SystemResetWarning,0822.9,5.00,000.00,018.5,018.0,000.0,026.9,020.2,12.4,0000.0,0000.45,0001.85,0000.28
2024-02-19 07:07:00,SystemResetWarning,0822.5,5.00,000.00,018.5,018.0,000.0,026.9,020.2,12.5,0000.0,0000.45,0001.72,0000.28
2024-02-19 07:08:00,SystemResetWarning,0822.5,5.01,000.00,018.5,018.0,000.0,026.9,020.2,12.4,0000.0,0000.44,0001.70,0000.27
2024-02-19 07:09:00,SystemResetWarning,0822.7,4.99,000.00,018.5,018.0,000.0,026.9,020.2,12.5,0000.0,0000.44,0001.72,0000.27
2024-02-19 07:10:00,SystemResetWarning,0822.4,4.99,000.00,018.5,018.0,000.0,026.9,020.2,12.5,0000.0,0000.43,0001.73,0000.27
2024-02-19 07:11:00,SystemResetWarning,0822.8,5.01,000.00,018.5,018.0,000.0,026.9,020.2,12.5,0000.0,0000.43,0001.75,0000.26
2024-02-19 07:12:00,SystemResetWarning,0822.5,5.02,000.00,018.5,018.0,000.0,026.9,020.2,12.8,0000.0,0000.42,0001.73,0000.25
2024-02-19 07:13:00,SystemResetWarning,0822.9,4.98,000.00,018.5,018.0,000.0,026.9,020.2,13.0,0000.0,0000.41,0001.64,0000.25
2024-02-19 07:14:00,SystemResetWarning,0822.4,4.99,000.00,018.5,018.0,000.0,026.9,020.2,13.1,0000.0,0000.40,0001.32,0000.25
2024-02-19 07:15:00,SystemResetWarning,0822.4,5.01,000.00,018.5,018.0,000.0,026.9,020.1,12.9,0000.0,0000.42,0001.11,0000.26
2024-02-19 07:16:00,SystemResetWarning,0822.4,5.01,000.00,018.5,017.9,000.0,026.9,020.1,13.1,0000.0,0000.42,0001.02,0000.25
2024-02-19 07:17:00,SystemResetWarning,0822.7,5.01,000.00,018.5,017.9,000.0,026.8,020.1,13.1,0000.0,0000.38,0001.40,0000.25
2024-02-19 07:18:00,SystemResetWarning,0822.7,5.00,000.00,018.5,017.9,000.0,026.9,020.1,12.8,0000.0,0000.36,0001.84,0000.24
2024-02-19 07:19:00,SystemResetWarning,0822.4,4.99,000.00,018.4,017.9,000.0,026.8,020.1,13.1,0000.0,0000.37,0001.85,0000.24
2024-02-19 07:20:00,SystemResetWarning,0823.0,5.00,000.00,018.4,017.8,000.0,026.8,020.1,13.2,0000.0,0000.38,0002.33,0000.23
2024-02-19 07:21:00,SystemResetWarning,0822.9,5.00,000.00,018.4,017.8,000.0,026.8,020.1,13.3,0000.0,0000.37,0002.47,0000.23
2024-02-19 07:22:00,SystemResetWarning,0822.8,5.01,000.00,018.4,017.8,000.0,026.8,020.0,13.2,0000.0,0000.38,0002.52,0000.23
2024-02-19 07:23:00,SystemResetWarning,0822.4,5.00,000.00,018.4,017.8,000.0,026.8,020.0,13.2,0000.0,0000.39,0002.55,0000.23
2024-02-19 07:24:00,SystemResetWarning,0822.8,5.00,000.00,018.4,017.8,000.0,026.8,020.0,12.7,0000.0,0000.42,0002.67,0000.24
2024-02-19 07:25:00,SystemResetWarning,0822.8,4.99,000.00,018.4,017.8,000.0,026.8,020.0,12.5,0000.0,0000.43,0003.15,0000.25
2024-02-19 07:26:00,SystemResetWarning,0822.8,5.00,000.00,018.4,017.8,000.0,026.8,020.0,12.4,0000.0,0000.42,0005.37,0000.25
2024-02-19 07:27:00,SystemResetWarning,0822.8,5.00,000.00,018.4,017.8,000.0,026.8,020.0,12.7,0000.0,0000.44,0005.31,0000.25
2024-02-19 07:28:00,SystemResetWarning,0822.9,5.00,000.00,018.4,017.8,000.0,026.8,020.0,12.9,0000.0,0000.46,0004.94,0000.26
2024-02-19 07:29:00,SystemResetWarning,0823.0,5.00,000.00,018.4,017.8,000.0,026.8,020.0,13.2,0000.0,0000.45,0004.32,0000.26
2024-02-19 07:30:00,SystemResetWarning,0823.1,5.00,000.00,018.4,017.8,000.0,026.8,020.0,12.9,0000.0,0000.44,0004.29,0000.26
2024-02-19 07:31:00,SystemResetWarning,0823.0,5.01,000.00,018.4,017.8,000.0,026.8,020.0,12.6,0000.0,0000.46,0004.28,0000.28
2024-02-19 07:32:00,SystemResetWarning,0823.0,5.01,000.00,018.4,017.8,000.0,026.8,020.0,12.5,0000.0,0000.50,0004.11,0000.28
2024-02-19 07:33:00,SystemResetWarning,0823.2,4.99,000.00,018.4,017.8,000.0,026.8,020.0,12.4,0000.0,0000.47,0004.09,0000.28
2024-02-19 07:34:00,SystemResetWarning,0823.0,4.99,000.00,018.4,017.8,000.0,026.8,020.0,12.4,0000.0,0000.47,0005.32,0000.28
2024-02-19 07:35:00,SystemResetWarning,0823.2,5.01,000.00,018.4,017.8,000.0,026.8,020.0,12.4,0000.0,0000.46,0005.55,0000.27
2024-02-19 07:36:00,SystemResetWarning,0823.2,5.00,000.00,018.4,017.8,000.0,026.8,020.1,12.6,0000.0,0000.48,0006.04,0000.27
2024-02-19 07:37:00,SystemResetWarning,0823.2,5.00,000.00,018.4,017.8,000.0,026.8,020.1,12.7,0000.0,0000.49,0003.90,0000.28
2024-02-19 07:38:00,SystemResetWarning,0823.1,5.00,000.00,018.4,017.8,000.0,026.8,020.1,12.8,0000.0,0000.48,0003.85,0000.29
2024-02-19 07:39:00,SystemResetWarning,0823.1,5.00,000.00,018.4,017.9,000.0,026.8,020.1,12.9,0000.0,0000.47,0003.83,0000.29
2024-02-19 07:40:00,SystemResetWarning,0823.1,5.01,000.00,018.4,017.9,000.0,026.8,020.1,13.0,0000.0,0000.47,0003.79,0000.29
2024-02-19 07:41:00,SystemResetWarning,0823.1,5.00,000.00,018.4,017.9,000.0,026.8,020.1,13.1,0000.0,0000.47,0003.79,0000.29
2024-02-19 07:42:00,SystemResetWarning,0823.0,5.00,000.00,018.4,017.9,000.0,026.8,020.1,13.1,0000.0,0000.46,0003.48,0000.29
2024-02-19 07:43:00,SystemResetWarning,0823.0,5.00,000.00,018.4,017.9,000.0,026.8,020.1,12.9,0000.0,0000.42,0003.28,0000.29
2024-02-19 07:44:00,SystemResetWarning,0823.1,5.00,000.00,018.4,017.9,000.0,026.8,020.1,12.9,0000.0,0000.43,0003.23,0000.29
2024-02-19 07:45:00,SystemResetWarning,0823.3,5.00,000.00,018.4,017.9,000.0,026.8,020.1,12.9,0000.0,0000.42,0001.93,0000.30
2024-02-19 07:46:00,SystemResetWarning,0823.0,5.00,000.00,018.4,017.9,000.0,026.8,020.1,12.3,0000.0,0000.43,0001.67,0000.31
2024-02-19 07:47:00,SystemResetWarning,0823.1,5.01,000.00,018.4,017.9,000.0,026.8,020.1,12.1,0000.0,0000.43,0001.03,0000.32
2024-02-19 07:48:00,SystemResetWarning,0823.1,5.01,000.00,018.4,017.9,000.0,026.8,020.1,12.0,0000.0,0000.43,0002.05,0000.32
2024-02-19 07:49:00,SystemResetWarning,0823.3,5.01,000.00,018.4,017.9,000.0,026.8,020.1,12.0,0000.0,0000.42,0002.09,0000.32
2024-02-19 07:50:00,SystemResetWarning,0823.2,4.99,000.00,018.4,017.9,000.0,026.8,020.1,12.2,0000.0,0000.42,0002.11,0000.32
2024-02-19 07:51:00,SystemResetWarning,0823.2,4.99,000.00,018.4,017.9,000.0,026.8,020.1,12.1,0000.0,0000.42,0002.11,0000.32
2024-02-19 07:52:00,SystemResetWarning,0823.4,5.00,000.00,018.4,017.9,000.0,026.8,020.1,12.0,0000.0,0000.44,0002.18,0000.32
2024-02-19 07:53:00,SystemResetWarning,0823.5,5.00,000.00,018.4,017.9,000.0,026.8,020.1,12.0,0000.0,0000.46,0002.35,0000.33
2024-02-19 07:54:00,SystemResetWarning,0823.5,5.00,000.00,018.4,017.9,000.0,026.8,020.1,12.1,0000.0,0000.47,0002.40,0000.33
2024-02-19 07:55:00,SystemResetWarning,0823.4,5.01,000.00,018.4,017.9,000.0,026.8,020.1,12.3,0000.0,0000.48,0002.42,0000.33
2024-02-19 07:56:00,SystemResetWarning,0823.4,5.00,000.00,018.4,017.9,000.0,026.8,020.1,12.1,0000.0,0000.48,0002.41,0000.32
2024-02-19 07:57:00,SystemResetWarning,0823.4,5.01,000.00,018.4,017.9,000.0,026.8,020.1,12.1,0000.0,0000.46,0002.35,0000.32
2024-02-19 07:58:00,SystemResetWarning,0823.5,5.00,000.00,018.4,017.9,000.0,026.8,020.1,12.3,0000.0,0000.42,0001.74,0000.30
2024-02-19 07:59:00,SystemResetWarning,0823.6,4.99,000.00,018.4,017.9,000.0,026.8,020.1,12.6,0000.0,0000.41,0000.86,0000.30
